College Park, MD

5:32 PM EDT on August 20, 2017 (GMT -0400)
College Park

Weather History for KCGS - August, 2013

Change the Weather History Date:

Thursday, August 22, 2013

  Actual Average Record
Temperature  
Mean Temperature 82 °F -  
Max Temperature 90 °F 83 °F 96 °F (1959)
Min Temperature 73 °F 62 °F 49 °F (1956)
Cooling Degree Days 16    
Growing Degree Days 32 (Base 50)    
Moisture  
Dew Point 70 °F    
Average Humidity 73    
Maximum Humidity 98    
Minimum Humidity 47    
Precipitation  
Precipitation 0.00 in - - ()
Sea Level Pressure  
Sea Level Pressure 30.02 in    
Wind  
Wind Speed 3 mph (WNW)    
Max Wind Speed 12 mph    
Max Gust Speed 17 mph    
Visibility 10 miles    
Events      
Averages and records for this station are not official NWS values.
T = Trace of Precipitation, MM = Missing Value Source: NWS Daily Summary

Daily Weather History Graph

Daily Weather History Graph

Search for Another Location

Airport or City:

Trip Planner

Search our weather history database for the weather conditions in past years. The results will help you decide how hot, cold, wet, or windy it might be!

Date:

Astronomy

Aug. 22, 2013 Rise Set
Actual Time 6:27 AM EDT 7:52 PM EDT
Civil Twilight 5:59 AM EDT 8:20 PM EDT
Nautical Twilight 5:26 AM EDT 8:53 PM EDT
Astronomical Twilight 4:50 AM EDT 9:29 PM EDT
Moon 8:37 PM EDT (8/22) 8:12 AM EDT (8/22)
Length of Visible Light 14h 20m
Length of Day
13h 24m
Waning Gibbous, 97% of the Moon is Illuminated
Aug 22
Waning Gibbous
Aug 28
Last Quarter
Sep 5
New
Sep 12
First Quarter
Sep 19
Full

Hourly Weather History & Observations

Time (EDT) Temp. Heat Index Dew Point Humidity Pressure Visibility Wind Dir Wind Speed Gust Speed Precip Events Conditions
12:05 AM 77.5 °F - 74.8 °F 91% 30.09 in 10.0 mi Calm Calm - N/A   Scattered Clouds
12:25 AM 77.0 °F - 74.3 °F 91% 30.09 in 10.0 mi SSE 4.6 mph - N/A   Scattered Clouds
12:45 AM 76.3 °F - 73.2 °F 90% 30.09 in 10.0 mi Calm Calm - N/A   Scattered Clouds
1:05 AM 76.1 °F - 73.9 °F 93% 30.09 in 10.0 mi Calm Calm - N/A   Clear
1:25 AM 75.7 °F - 74.5 °F 96% 30.09 in 10.0 mi South 3.5 mph - N/A   Clear
1:45 AM 75.7 °F - 74.7 °F 96% 30.09 in 10.0 mi SSW 3.5 mph - N/A   Clear
2:10 AM 75.7 °F - 73.6 °F 93% 30.09 in 10.0 mi Calm Calm - N/A   Clear
2:30 AM 75.4 °F - 73.6 °F 94% 30.08 in 10.0 mi Calm Calm - N/A   Clear
2:50 AM 75.4 °F - 73.8 °F 95% 30.07 in 10.0 mi Calm Calm - N/A   Clear
3:10 AM 75.2 °F - 73.6 °F 95% 30.07 in 10.0 mi Calm Calm - N/A   Clear
3:30 AM 74.8 °F - 73.6 °F 96% 30.07 in 10.0 mi Calm Calm - N/A   Clear
3:50 AM 75.0 °F - 73.4 °F 95% 30.06 in 10.0 mi Calm Calm - N/A   Scattered Clouds
4:10 AM 75.2 °F - 73.2 °F 94% 30.05 in 10.0 mi Calm Calm - N/A   Scattered Clouds
4:30 AM 74.8 °F - 73.4 °F 95% 30.05 in 10.0 mi Calm Calm - N/A   Clear
4:50 AM 74.7 °F - 73.2 °F 95% 30.04 in 10.0 mi Calm Calm - N/A   Clear
5:10 AM 74.3 °F - 72.9 °F 95% 30.04 in 10.0 mi Calm Calm - N/A   Clear
5:30 AM 73.8 °F - 72.7 °F 96% 30.04 in 10.0 mi Calm Calm - N/A   Mostly Cloudy
5:50 AM 74.3 °F - 72.9 °F 95% 30.04 in 10.0 mi Calm Calm - N/A   Overcast
6:10 AM 73.6 °F - 72.7 °F 97% 30.05 in 10.0 mi Calm Calm - N/A   Mostly Cloudy
6:30 AM 73.4 °F - 72.7 °F 98% 30.05 in 10.0 mi Calm Calm - N/A   Scattered Clouds
6:50 AM 73.6 °F - 72.9 °F 98% 30.06 in 10.0 mi Calm Calm - N/A   Mostly Cloudy
7:10 AM 73.9 °F - 73.0 °F 97% 30.06 in 10.0 mi Calm Calm - N/A   Mostly Cloudy
7:30 AM 74.3 °F - 73.0 °F 96% 30.07 in 10.0 mi Calm Calm - N/A   Overcast
7:50 AM 74.3 °F - 72.9 °F 95% 30.07 in 10.0 mi Calm Calm - N/A   Scattered Clouds
8:10 AM 74.7 °F - 72.7 °F 94% 30.07 in 10.0 mi Calm Calm - N/A   Clear
8:30 AM 75.7 °F - 72.5 °F 90% 30.07 in 10.0 mi WSW 3.5 mph - N/A   Clear
8:50 AM 77.5 °F - 71.8 °F 82% 30.06 in 10.0 mi Calm Calm - N/A   Clear
9:10 AM 79.7 °F - 71.2 °F 75% 30.05 in 10.0 mi NW 6.9 mph - N/A   Clear
9:30 AM 80.6 °F 83.9 °F 70.2 °F 70% 30.05 in 10.0 mi West 4.6 mph - N/A   Clear
9:50 AM 81.3 °F 84.8 °F 69.8 °F 68% 30.05 in 10.0 mi NW 5.8 mph - N/A   Clear
10:10 AM 82.0 °F 85.9 °F 70.0 °F 67% 30.05 in 10.0 mi WNW 5.8 mph - N/A   Clear
10:30 AM 83.3 °F 87.1 °F 69.6 °F 63% 30.05 in 10.0 mi NW 6.9 mph - N/A   Clear
10:50 AM 84.4 °F 88.2 °F 69.1 °F 60% 30.06 in 10.0 mi NW 4.6 mph - N/A   Mostly Cloudy
11:10 AM 84.7 °F 88.2 °F 68.7 °F 58% 30.06 in 10.0 mi NW 10.4 mph 16.1 mph N/A   Mostly Cloudy
11:30 AM 85.5 °F 89.1 °F 68.7 °F 57% 30.05 in 10.0 mi NNW 8.1 mph - N/A   Scattered Clouds
11:50 AM 85.5 °F 89.1 °F 68.9 °F 57% 30.05 in 10.0 mi NW 6.9 mph - N/A   Clear
12:10 PM 86.4 °F 90.0 °F 68.7 °F 55% 30.04 in 10.0 mi NW 5.8 mph - N/A   Scattered Clouds
12:30 PM 86.4 °F 90.0 °F 68.5 °F 55% 30.04 in 10.0 mi WNW 9.2 mph - N/A   Scattered Clouds
12:50 PM 87.4 °F 91.9 °F 69.4 °F 55% 30.03 in 10.0 mi WNW 8.1 mph - N/A   Clear
1:10 PM 87.4 °F 90.8 °F 67.8 °F 52% 30.02 in 10.0 mi West 6.9 mph - N/A   Clear
1:30 PM 88.2 °F 91.7 °F 67.8 °F 51% 30.02 in 10.0 mi West 8.1 mph - N/A   Scattered Clouds
1:50 PM 87.8 °F 90.7 °F 67.1 °F 50% 30.01 in 10.0 mi WNW 8.1 mph - N/A   Scattered Clouds
2:10 PM 88.2 °F 90.9 °F 66.6 °F 49% 29.99 in 10.0 mi North 4.6 mph - N/A   Clear
2:30 PM 88.7 °F 91.9 °F 67.1 °F 49% 29.98 in 10.0 mi NW 5.8 mph - N/A   Clear
2:50 PM 88.2 °F 91.3 °F 67.3 °F 50% 29.98 in 10.0 mi WNW 9.2 mph - N/A   Scattered Clouds
3:10 PM 88.3 °F 91.6 °F 67.5 °F 50% 29.98 in 10.0 mi NW 9.2 mph - N/A   Scattered Clouds
3:30 PM 87.3 °F 90.5 °F 67.6 °F 52% 29.97 in 10.0 mi West 8.1 mph - N/A   Mostly Cloudy
3:50 PM 87.6 °F 90.8 °F 67.5 °F 51% 29.96 in 10.0 mi West 4.6 mph - N/A   Overcast
4:10 PM 88.0 °F 91.0 °F 67.5 °F 50% 29.96 in 10.0 mi West 6.9 mph - N/A   Mostly Cloudy
4:30 PM 90.0 °F 93.2 °F 67.3 °F 47% 29.95 in 10.0 mi West 11.5 mph 17.3 mph N/A   Scattered Clouds
4:50 PM 88.2 °F 91.3 °F 67.3 °F 50% 29.95 in 10.0 mi West 8.1 mph - N/A   Clear
5:10 PM 87.4 °F 90.5 °F 67.1 °F 51% 29.95 in 10.0 mi West 5.8 mph - N/A   Scattered Clouds
5:30 PM 88.5 °F 91.2 °F 66.4 °F 48% 29.95 in 10.0 mi West 9.2 mph - N/A   Clear
5:50 PM 87.3 °F 90.2 °F 66.9 °F 51% 29.95 in 10.0 mi WNW 6.9 mph - N/A   Clear
6:10 PM 86.0 °F 88.5 °F 66.6 °F 52% 29.95 in 10.0 mi WNW 6.9 mph - N/A   Clear
6:30 PM 86.4 °F 89.0 °F 67.1 °F 52% 29.95 in 10.0 mi WSW 5.8 mph - N/A   Clear
6:50 PM 86.0 °F 89.1 °F 67.5 °F 54% 29.94 in 10.0 mi West 4.6 mph - N/A   Clear
7:10 PM 85.8 °F 89.1 °F 67.8 °F 55% 29.94 in 10.0 mi West 3.5 mph - N/A   Clear
7:30 PM 85.1 °F 88.5 °F 68.2 °F 57% 29.94 in 10.0 mi WSW 3.5 mph - N/A   Clear
7:50 PM 83.7 °F 87.7 °F 70.0 °F 63% 29.93 in 10.0 mi Calm Calm - N/A   Clear
8:10 PM 79.5 °F - 70.3 °F 73% 29.94 in 10.0 mi Calm Calm - N/A   Clear
8:30 PM 78.1 °F - 70.7 °F 78% 29.95 in 10.0 mi Calm Calm - N/A   Clear
8:50 PM 77.2 °F - 70.9 °F 81% 29.95 in 10.0 mi Calm Calm - N/A   Clear
9:10 PM 76.5 °F - 71.4 °F 84% 29.96 in 10.0 mi Calm Calm - N/A   Clear
9:30 PM 76.5 °F - 71.1 °F 83% 29.96 in 10.0 mi Calm Calm - N/A   Clear
9:50 PM 75.9 °F - 70.9 °F 84% 29.96 in 10.0 mi Calm Calm - N/A   Clear
10:10 PM 81.5 °F 84.9 °F 69.8 °F 67% 29.96 in 10.0 mi Calm Calm - N/A   Clear
10:30 PM 81.7 °F 85.1 °F 69.4 °F 66% 29.96 in 10.0 mi Calm Calm - N/A   Clear
10:50 PM 80.6 °F 83.6 °F 69.3 °F 68% 29.96 in 10.0 mi Calm Calm - N/A   Clear
11:10 PM 80.4 °F 83.4 °F 69.1 °F 68% 29.96 in 10.0 mi Calm Calm - N/A   Clear
11:30 PM 79.7 °F - 69.3 °F 70% 29.96 in 10.0 mi Calm Calm - N/A   Clear
11:50 PM 79.3 °F - 69.8 °F 72% 29.96 in 10.0 mi Calm Calm - N/A   Clear